timestamp,surface_pressure_avg,surface_temp_avg,battery_voltage,lat,long
2018-10-23 00:00:00+00:00,355.5412,10.32,12.81,47.84626,-54.09684
2018-10-23 00:10:00+00:00,337.7562,10.3,12.73,47.84626,-54.09684
2018-10-23 00:20:00+00:00,317.468,10.3,12.81,47.84626,-54.09684
2018-10-23 00:30:00+00:00,330.9229,10.3,12.81,47.84626,-54.09684
2018-10-23 00:40:00+00:00,335.5496,10.3,12.81,47.84626,-54.09684
2018-10-23 00:50:00+00:00,305.9747,10.3,12.81,47.84626,-54.09684
2018-10-23 01:00:00+00:00,298.4414,10.3,12.81,47.84626,-54.09684
2018-10-23 01:10:00+00:00,305.9464,10.3,12.73,47.84626,-54.09684
2018-10-23 01:20:00+00:00,296.8214,10.3,12.81,47.84626,-54.09684
2018-10-23 01:30:00+00:00,280.5997,10.3,12.81,47.84626,-54.09684
2018-10-23 01:40:00+00:00,281.8698,10.3,12.81,47.84626,-54.09684
2018-10-23 01:50:00+00:00,278.7414,10.3,12.81,47.84626,-54.09684
2018-10-23 02:00:00+00:00,263.8931,10.3,12.81,47.84626,-54.09684
2018-10-23 02:10:00+00:00,255.6148,10.29,12.73,47.84626,-54.09684
2018-10-23 02:20:00+00:00,250.6431,10.29,12.81,47.84626,-54.09684
2018-10-23 02:30:00+00:00,245.1131,10.2,12.81,47.84626,-54.09684
2018-10-23 02:40:00+00:00,237.3931,10.2,12.81,47.84626,-54.09684
2018-10-23 02:50:00+00:00,232.0131,10.2,12.81,47.84626,-54.09684
2018-10-23 03:00:00+00:00,226.4181,10.16,12.81,47.84626,-54.09684
2018-10-23 03:10:00+00:00,223.3615,10.15,12.73,47.84626,-54.09684
2018-10-23 03:20:00+00:00,226.7264,10.1,12.81,47.84626,-54.09684
2018-10-23 03:30:00+00:00,219.5164,10.1,12.81,47.84626,-54.09684
2018-10-23 03:40:00+00:00,214.1714,10.16,12.81,47.84626,-54.09684
2018-10-23 03:50:00+00:00,218.8715,10.19,12.81,47.84626,-54.09684
2018-10-23 04:00:00+00:00,220.7814,10.18,12.81,47.84626,-54.09684
2018-10-23 04:10:00+00:00,212.0581,10.15,12.73,47.84626,-54.09684
2018-10-23 04:20:00+00:00,205.4015,10.2,12.81,47.84626,-54.09684
2018-10-23 04:30:00+00:00,213.1681,10.2,12.81,47.84626,-54.09684
2018-10-23 04:40:00+00:00,216.8548,10.2,12.81,47.84626,-54.09684
2018-10-23 04:50:00+00:00,203.8247,10.2,12.81,47.84626,-54.09684
2018-10-23 05:00:00+00:00,202.3898,10.2,12.81,47.84626,-54.09684
2018-10-23 05:10:00+00:00,217.7964,10.2,12.73,47.84626,-54.09684
2018-10-23 05:20:00+00:00,218.5231,10.2,12.81,47.84626,-54.09684
2018-10-23 05:30:00+00:00,213.7014,10.2,12.81,47.84626,-54.09684
2018-10-23 05:40:00+00:00,222.8031,10.2,12.81,47.84626,-54.09684
2018-10-23 05:50:00+00:00,233.7031,10.2,12.81,47.84626,-54.09684
2018-10-23 06:00:00+00:00,231.1481,10.05,12.81,47.84626,-54.09684
2018-10-23 06:10:00+00:00,228.6165,9.99,12.73,47.84626,-54.09684
2018-10-23 06:20:00+00:00,239.5714,10.16,12.81,47.84626,-54.09684
2018-10-23 06:30:00+00:00,246.0781,10.0,12.81,47.84626,-54.09684
2018-10-23 06:40:00+00:00,246.6364,10.0,12.81,47.84626,-54.09684
2018-10-23 06:50:00+00:00,252.3847,10.1,12.81,47.84626,-54.09684
2018-10-23 07:00:00+00:00,262.8481,9.82,12.73,47.84626,-54.09684
2018-10-23 07:10:00+00:00,264.9264,10.2,12.73,47.84626,-54.09684
2018-10-23 07:20:00+00:00,267.2897,10.28,12.81,47.84626,-54.09684
2018-10-23 07:30:00+00:00,278.5947,10.3,12.81,47.84626,-54.09684
2018-10-23 07:40:00+00:00,285.603,10.29,12.81,47.84626,-54.09684
2018-10-23 07:50:00+00:00,281.7864,10.3,12.81,47.84626,-54.09684
2018-10-23 08:00:00+00:00,288.5214,10.3,12.73,47.84626,-54.09684
2018-10-23 08:10:00+00:00,303.2363,10.29,12.73,47.84626,-54.09684
2018-10-23 08:20:00+00:00,307.433,10.24,12.81,47.84626,-54.09684
2018-10-23 08:30:00+00:00,307.8814,10.3,12.81,47.84626,-54.09684
2018-10-23 08:40:00+00:00,318.2114,10.3,12.81,47.84626,-54.09684
2018-10-23 08:50:00+00:00,325.8846,10.3,12.81,47.84626,-54.09684
2018-10-23 09:00:00+00:00,327.2712,10.3,12.73,47.84626,-54.09684
2018-10-23 09:10:00+00:00,333.6797,10.3,12.73,47.84626,-54.09684
2018-10-23 09:20:00+00:00,340.223,10.3,12.81,47.84626,-54.09684
2018-10-23 09:30:00+00:00,341.178,10.3,12.81,47.84626,-54.09684
2018-10-23 09:40:00+00:00,344.3796,10.3,12.81,47.84626,-54.09684
2018-10-23 09:50:00+00:00,352.4979,10.3,12.81,47.84626,-54.09684
2018-10-23 10:00:00+00:00,351.5512,10.3,12.73,47.84626,-54.09684
2018-10-23 10:10:00+00:00,353.4897,10.3,12.73,47.84626,-54.09684
2018-10-23 10:20:00+00:00,356.8362,10.3,12.81,47.84626,-54.09684
2018-10-23 10:30:00+00:00,354.2346,10.3,12.81,47.84626,-54.09684
2018-10-23 10:40:00+00:00,350.8547,10.3,12.89,47.84626,-54.09684
2018-10-23 10:50:00+00:00,354.7196,10.3,13.76,47.84626,-54.09684
2018-10-23 11:00:00+00:00,357.6813,10.34,14.16,47.84626,-54.09684
2018-10-23 11:10:00+00:00,345.7379,10.3,14.32,47.84626,-54.09684
2018-10-23 11:20:00+00:00,342.3463,10.36,13.84,47.84626,-54.09684
2018-10-23 11:30:00+00:00,352.0329,10.36,13.6,47.84626,-54.09684
2018-10-23 11:40:00+00:00,350.5129,10.3,13.53,47.84626,-54.09684
2018-10-23 11:50:00+00:00,337.4963,10.29,13.76,47.84626,-54.09684
2018-10-23 12:00:00+00:00,332.203,10.3,14.0,47.84626,-54.09684
2018-10-23 12:10:00+00:00,337.1246,10.3,13.53,47.84626,-54.09684
2018-10-23 12:20:00+00:00,329.7763,10.3,13.68,47.84626,-54.09684
2018-10-23 12:30:00+00:00,319.6396,10.3,13.76,47.84626,-54.09684
2018-10-23 12:40:00+00:00,317.7713,10.3,14.48,47.84626,-54.09684
2018-10-23 12:50:00+00:00,311.9213,10.3,16.15,47.84626,-54.09684
2018-10-23 13:00:00+00:00,301.3381,10.3,13.92,47.84626,-54.09684
2018-10-23 13:10:00+00:00,294.9314,10.3,13.68,47.84626,-54.09684
2018-10-23 13:20:00+00:00,290.5347,10.3,13.68,47.84626,-54.09684
2018-10-23 13:30:00+00:00,282.4714,10.3,13.76,47.84626,-54.09684
2018-10-23 13:40:00+00:00,273.0081,10.3,13.84,47.84626,-54.09684
2018-10-23 13:50:00+00:00,269.0447,10.3,16.23,47.84626,-54.09684
2018-10-23 14:00:00+00:00,260.4214,10.29,14.24,47.84626,-54.09684
2018-10-23 14:10:00+00:00,253.7714,10.28,14.0,47.84626,-54.09684
2018-10-23 14:20:00+00:00,244.2797,10.2,14.32,47.84626,-54.09684
2018-10-23 14:30:00+00:00,234.0464,10.17,14.08,47.84626,-54.09684
2018-10-23 14:40:00+00:00,224.9147,10.2,13.92,47.84626,-54.09684
2018-10-23 14:50:00+00:00,221.1798,10.25,16.47,47.84626,-54.09684
2018-10-23 15:00:00+00:00,213.4981,10.2,14.56,47.84626,-54.09684
2018-10-23 15:10:00+00:00,200.4481,10.17,14.32,47.84626,-54.09684
2018-10-23 15:20:00+00:00,196.1365,10.22,14.16,47.84626,-54.09684
2018-10-23 15:30:00+00:00,195.9831,10.3,14.32,47.84626,-54.09684
2018-10-23 15:40:00+00:00,184.6381,10.3,14.08,47.84626,-54.09684
2018-10-23 15:50:00+00:00,175.7032,10.3,14.0,47.84626,-54.09684
2018-10-23 16:00:00+00:00,176.9181,10.33,14.32,47.84626,-54.09684
2018-10-23 16:10:00+00:00,175.1215,10.35,14.4,47.84626,-54.09684
2018-10-23 16:20:00+00:00,167.2398,10.3,14.32,47.84626,-54.09684
2018-10-23 16:30:00+00:00,169.1448,10.3,14.32,47.84626,-54.09684
2018-10-23 16:40:00+00:00,177.1698,10.32,15.75,47.84626,-54.09684
2018-10-23 16:50:00+00:00,171.4548,10.36,14.4,47.84626,-54.09684
2018-10-23 17:00:00+00:00,168.0231,10.37,14.24,47.84626,-54.09684
2018-10-23 17:10:00+00:00,177.7682,10.37,14.88,47.84626,-54.09684
2018-10-23 17:20:00+00:00,180.9798,10.3,14.48,47.84626,-54.09684
2018-10-23 17:30:00+00:00,177.9598,10.2,14.96,47.84626,-54.09684
2018-10-23 17:40:00+00:00,184.2148,10.23,14.56,47.84626,-54.09684
2018-10-23 17:50:00+00:00,193.0015,10.25,14.4,47.84626,-54.09684
2018-10-23 18:00:00+00:00,193.8765,10.3,14.56,47.84626,-54.09684
2018-10-23 18:10:00+00:00,196.3214,10.34,14.24,47.84626,-54.09684
2018-10-23 18:20:00+00:00,204.3665,10.3,14.24,47.84626,-54.09684
2018-10-23 18:30:00+00:00,208.7415,10.3,14.24,47.84626,-54.09684
2018-10-23 18:40:00+00:00,211.9031,10.3,14.24,47.84626,-54.09684
2018-10-23 18:50:00+00:00,218.6731,10.3,14.24,47.84626,-54.09684
2018-10-23 19:00:00+00:00,223.9331,10.29,14.24,47.84626,-54.09684
2018-10-23 19:10:00+00:00,228.3297,10.1,14.0,47.84626,-54.09684
2018-10-23 19:20:00+00:00,234.3214,10.1,14.08,47.84626,-54.09684
2018-10-23 19:30:00+00:00,241.4698,10.14,14.08,47.84626,-54.09684
2018-10-23 19:40:00+00:00,248.6464,10.19,14.0,47.84626,-54.09684
2018-10-23 19:50:00+00:00,253.843,10.1,13.92,47.84626,-54.09684
2018-10-23 20:00:00+00:00,260.6681,10.0,13.84,47.84626,-54.09684
2018-10-23 20:10:00+00:00,268.933,10.06,13.68,47.84626,-54.09684
2018-10-23 20:20:00+00:00,278.2364,10.0,13.6,47.84626,-54.09684
2018-10-23 20:30:00+00:00,285.2964,9.8,13.53,47.84626,-54.09684
2018-10-23 20:40:00+00:00,291.0081,9.7,13.53,47.84626,-54.09684
2018-10-23 20:50:00+00:00,298.893,9.6,13.44,47.84626,-54.09684
2018-10-23 21:00:00+00:00,309.8047,9.6,13.37,47.84626,-54.09684
2018-10-23 21:10:00+00:00,316.008,9.48,13.21,47.84626,-54.09684
2018-10-23 21:20:00+00:00,321.5079,9.5,13.29,47.84626,-54.09684
2018-10-23 21:30:00+00:00,329.6614,9.46,13.21,47.84626,-54.09684
2018-10-23 21:40:00+00:00,336.848,9.49,13.29,47.84626,-54.09684
2018-10-23 21:50:00+00:00,341.3613,9.4,13.21,47.84626,-54.09684
2018-10-23 22:00:00+00:00,345.0162,9.5,13.21,47.84626,-54.09684
2018-10-23 22:10:00+00:00,349.0112,9.6,13.05,47.84626,-54.09684
2018-10-23 22:20:00+00:00,353.8812,9.6,13.13,47.84626,-54.09684
2018-10-23 22:30:00+00:00,355.2379,9.5,13.13,47.84626,-54.09684
2018-10-23 22:40:00+00:00,356.4763,9.71,13.21,47.84626,-54.09684
2018-10-23 22:50:00+00:00,358.0262,10.1,13.21,47.84626,-54.09684
2018-10-23 23:00:00+00:00,360.0013,10.09,13.13,47.84626,-54.09684
2018-10-23 23:10:00+00:00,357.6346,9.9,13.05,47.84626,-54.09684
2018-10-23 23:20:00+00:00,352.8862,9.9,13.13,47.84626,-54.09684
2018-10-23 23:30:00+00:00,355.5312,9.9,13.13,47.84626,-54.09684
2018-10-23 23:40:00+00:00,354.1146,9.8,13.13,47.84626,-54.09684
2018-10-23 23:50:00+00:00,346.5447,9.8,13.13,47.84626,-54.09684
